Location: Paddlesworth
(51.1000°N, 1.1333°E)
Time: 12:37:32
(UTC+00:00)

Cosmos 1437 - Pass Details

Date: 11 May 2021
Orbit: 337 x 343 km, 81.2° (Epoch: 19 June)

Event Time Altitude Azimuth Distance (km) Brightness Sun altitude
Exits shadow 21:04:31 - 197° (SSW) 1,526 5.3 -11.7°
Reaches altitude 10° 21:04:59 10° 198° (SSW) 1,327 5.0 -11.7°
Maximum altitude 21:07:51 72° 283° (WNW) 380 2.6 -12.0°
Drops below altitude 10° 21:10:44 10° 9° (N) 1,340 5.9 -12.3°
Sets 21:12:43 0° 11° (NNE) 2,189 7.0 -12.5°
